Regional Weather Roundup
Issued by NWS

Home | Current Version | Previous Version | Graphics & Text | Print | Product List | Glossary Off
Versions: 1 2 3 4 5 6 7 8 9 10 11 12 13 14 15 16 17 18 19 20 21 22 23 24 25 26 27 28 29 30 31 32 33 34 35 36 37 38 39 40 41 42 43 44 45 46 47 48 49

000
ASUS43 KDMX 222207
RWRIA

WEATHER ROUNDUP FOR IOWA
NATIONAL WEATHER SERVICE DES MOINES IA
400 PM CST MON DEC 22 2014

NOTE: "FAIR" INDICATES FEW OR NO CLOUDS BELOW 12,000 FEET WITH NO
SIGNIFICANT WEATHER AND/OR OBSTRUCTIONS TO VISIBILITY.

* - THESE STATIONS ARE NOT NWS STATIONS...THUS NOT UNDER NWS
QUALITY CONTROL.  THEY ALSO DO NOT REPORT WEATHER SUCH
AS PRECIPITATION OR FOG.

IAZ001>003-012>014-020>022-031>034-043>046-222300-
   NORTHWEST IOWA

CITY           SKY/WX    TMP DP  RH WIND       PRES   REMARKS
CARROLL *      MIX PCPN  41  41 100 SE10      29.43S
CHEROKEE *     RAIN      41  41 100 SE7       29.42F
DENISON *      CLOUDY    41  41 100 SE5       29.40S FOG
LE MARS *      MIX PCPN  41  41 100 W3        29.42R
ORANGE CITY *  RAIN      41  39  93 SE6       29.41S
SHELDON *      MIX PCPN  39  39 100 SE9       29.42R VSB 3/4 WCI  33
SIOUX CITY     LGT RAIN  42  40  92 N3        29.42R
SPENCER        LGT RAIN  39  37  92 SE13      29.45R FOG     WCI  31
STORM LAKE *   CLOUDY    39  39 100 SE10      29.43S FOG     WCI  32
$$

IAZ055>058-069>071-079>083-090>094-222300-
   SOUTHWEST IOWA

CITY           SKY/WX    TMP DP  RH WIND       PRES   REMARKS
ATLANTIC *     MOCLDY    41  41 100 SE7       29.41S
AUDUBON *      LGT RAIN  41  36  81 SE6       29.43S
CLARINDA *     MOCLDY    43  43 100 SE7       29.42S
COUNCIL BLFS * MIX PCPN  43  43 100 SE3       29.39S
CRESTON *      CLOUDY    41  41 100 SE7       29.43S FOG
HARLAN  *      CLOUDY    43  43 100 SE6       29.44S
LAMONI         CLOUDY    41  40  96 SE7       29.43F FOG
RED OAK *      LGT RAIN  43  43 100 SE7       29.41S
SHENANDOAH *   LGT RAIN  45  45 100 CALM      29.41S
$$

IAZ047>049-059>061-072>074-084-222300-
   CENTRAL IOWA

CITY           SKY/WX    TMP DP  RH WIND       PRES   REMARKS
AMES           LGT RAIN  38  36  92 SE8       29.47F FOG     WCI  32
ANKENY *       MIX PCPN  39  39 100 SE10G17   29.47S WCI  32
CHARITON *     MIX PCPN  41  39  93 SE10      29.46S
DES MOINES     LGT RAIN  41  38  89 SE10      29.47S FOG
GRINNELL*      FOG       37  36  93 E13G21    29.50F VSB 3/4 WCI  29
KNOXVILLE *    FOG       39  37  93 SE9       29.46F VSB 1   WCI  33
MARSHALLTOWN   CLOUDY    37  35  92 SE16      29.50S WCI  28
PELLA *        LGT RAIN  39  37  93 SE8       29.51R VSB 1/2 WCI  34
PERRY *        DRIZZLE   39  39 100 SE10      29.45S WCI  32
$$

IAZ004>006-015-016-023>025-035-036-222300-
   NORTH CENTRAL IOWA

CITY           SKY/WX    TMP DP  RH WIND       PRES   REMARKS
ALGONA *       CLOUDY    37 N/A N/A SE13G18   29.49S HAZE    WCI  29
CLARION *      MIX PCPN  37  37 100 E14       29.49S WCI  29
ESTHERVILLE    MIX PCPN  36  35  96 SE15      29.47R FOG     WCI  27
FORT DODGE *   CLOUDY    37  34  87 E12       29.47F WCI  30
MASON CITY     CLOUDY    35  34  96 E15       29.53S FOG     WCI  25
FOREST CITY *  RAIN      34  34 100 E10G17    29.51S WCI  26
IOWA FALLS *   CLOUDY    37  36  93 E13       29.50F FOG     WCI  29
$$

IAZ007>011-017>019-026>030-037>042-050>054-066-222300-
   NORTHEAST IOWA

CITY           SKY/WX    TMP DP  RH WIND       PRES   REMARKS
CEDAR RAPIDS   FOG       36  36 100 E12       29.54S VSB 3/4 WCI  28
CHARLES CITY * CLOUDY    36  36 100 E14       29.54F FOG     WCI  27
CLINTON *      CLOUDY    36  34  93 E12       29.62S WCI  27
DECORAH *      MIX PCPN  34  34 100 E13       29.57F WCI  25
DUBUQUE        MIX PCPN  35  33  92 SE14      29.58F FOG     WCI  26
MONTICELLO *   CLOUDY    36  36 100 E14       29.57F FOG     WCI  27
OELWEIN *      CLOUDY    36  36 100 E15       29.55F FOG     WCI  26
WATERLOO       LGT RAIN  36  36 100 E15       29.53F WCI  27
$$

IAZ064-065-067-068-078-222300-
   EAST CENTRAL IOWA

CITY           SKY/WX    TMP DP  RH WIND       PRES   REMARKS
DAVENPORT      CLOUDY    37  35  92 SE10      29.58F FOG     WCI  30
IOWA CITY      FOG       38  38 100 E10       29.56F VSB 1   WCI  31
MT. PLEASANT * FOG       39  39 100 SE9       29.53F VSB 1/2 WCI  33
MUSCATINE *    MIX PCPN  39  39 100 SE8       29.56F WCI  34
QUAD CITIES    CLOUDY    39  37  92 E7        29.57F FOG     WCI  34
$$

IAZ062-063-075>077-085>089-095>099-222300-
   SOUTHEAST IOWA

CITY           SKY/WX    TMP DP  RH WIND       PRES   REMARKS
BURLINGTON     FOG       41  41 100 SE9       29.53F VSB 1/4
FAIRFIELD *    FOG       39  37  93 SE9       29.51F VSB 0   WCI  33
FORT MADISON * FOG       43  43 100 SE7       29.53F VSB 1/4
KEOKUK *       FOG       43  43 100 SE7       29.51F VSB 3/4
OSKALOOSA *    FOG       37  37 100 SE12      29.50F VSB 1/4 WCI  30
CENTERVILLE *  LGT RAIN  39  39 100 E9        29.48S WCI  33
OTTUMWA        FOG       38  37  97 SE12      29.48F VSB 1/2 WCI  30
WASHINGTON *   FOG       39  39 100 SE10      29.53F VSB 1/2 WCI  32
$$

ABBREVIATIONS USED IN REMARKS
   TC - TEMPERATURES IN CELSIUS
  WCI - WIND CHILL INDEX
   HX - HEAT INDEX
  VSB - VISIBILITY
$$




USA.gov is the U.S. government's official web portal to all federal, state and local government web resources and services.